Regional Weather Roundup
Issued by NWS

Home | Current Version | Previous Version | Graphics & Text | Print | Product List | Glossary On
Versions: 1 2 3 4 5 6 7 8 9 10 11 12 13 14 15 16 17 18 19 20 21 22 23 24 25 26 27
000
ASUS45 KCYS 152110
RWRWY

WYOMING REGIONAL WEATHER ROUNDUP
NATIONAL WEATHER SERVICE CHEYENNE WY
300 PM MDT TUE APR 15 2014

NOTE:  "FAIR" INDICATES FEW OR NO CLOUDS BELOW 12,000 FEET
WITH NO SIGNIFICANT WEATHER AND/OR OBSTRUCTIONS TO VISIBILITY.

WYZ001-152200-
YELLOWSTONE NATIONAL PARK

CITY           SKY/WX    TMP DP  RH WIND       PRES   REMARKS
LK YELLOWSTONE   N/A     35  19  52 W12G22    29.78F WCI  27
W YELLOWSTONE  NOT AVBL

$$
WYZ002>013-054>058-071-098>099-152200-
NORTHERN WYOMING

CITY           SKY/WX    TMP DP  RH WIND       PRES   REMARKS
JACKSON        CLOUDY    41  25  52 MISG      29.79F
CODY           CLOUDY    54  25  32 S10G18    29.66S
GREYBULL       CLOUDY    52  29  41 CALM      29.64F
WORLAND        CLOUDY    57  26  30 NE10      29.62F
SHERIDAN       CLOUDY    56  24  29 NW10G22   29.63S
BUFFALO        CLOUDY    55  21  26 N9        29.65F
GILLETTE       PTSUNNY   62  20  19 W9G23     29.61F
HULETT         FAIR      61  21  21 W14       29.61
NEWCASTLE      FAIR      57  27  30 MISG      29.64

$$
WYZ014>020-022>026-101>103-152200-
CENTRAL WYOMING

CITY           SKY/WX    TMP DP  RH WIND       PRES   REMARKS
BIG PINEY      PTSUNNY   54  15  21 W22G39    29.82F
PINEDALE       CLOUDY    46  23  39 W22G29    29.81F
DUBOIS         CLOUDY    41  19  42 NW20G35   29.77R
LANDER         PTSUNNY   61  16  17 W5        29.67F
RIVERTON       PTSUNNY   60  11  14 W28G33    29.66F
CASPER         PTSUNNY   57  13  17 W25G33    29.69F
DOUGLAS        MOSUNNY   56  27  32 W23G35    29.70F

$$
WYZ021-027>030-104>119-152200-
SOUTHERN WYOMING

CITY           SKY/WX    TMP DP  RH WIND       PRES   REMARKS
EVANSTON       PTSUNNY   53  12  19 W31G39    29.90F
KEMMERER       MOCLDY    54  10  17 W37G44    29.86S
FORT BRIDGER   FAIR      60  10  14 W33G45    29.88F
ROCK SPRINGS   NOT AVBL
DIXON          FAIR      55  16  21 SW25G32   29.90F
RAWLINS        MOSUNNY   56  14  19 SW25G36   29.82F
SARATOGA       FAIR      52  18  25 SW21G32   29.86F
LARAMIE        SUNNY     47  17  30 SW25G35   29.81F
CHEYENNE       PTSUNNY   52  20  28 W21G32    29.79F
TORRINGTON     MOSUNNY   61  24  24 W21G29    29.70F
PINE BLUFFS    FAIR      54  23  30 W21G26    29.78F

$$



USA.gov is the U.S. government's official web portal to all federal, state and local government web resources and services.